"2009-04-13 00:00:30",795211,13.58,73.45,3.822,0.562,9.67,102.0044,4.414,5.705,87.6,0,109.8,13.49,5.18,35.4
"2009-04-13 00:01:00",795212,14.12,71.76,4.804,0.692,9.65,102.0014,4.407,5.704,87.5,0,109.8,13.49,5.17,33.8
"2009-04-13 00:01:30",795213,14.32,73.6,4.236,0.624,9.74,101.9994,4.402,5.685,87.4,0,109.8,13.49,5.17,35.6
"2009-04-13 00:02:00",795214,14.34,71.82,4.442,0.526,9.84,101.9946,4.389,5.677,87.3,0,109.8,13.49,5.16,33.8
"2009-04-13 00:02:30",795215,14.44,73.47,4.271,0.567,9.9,101.9926,4.384,5.686,87.3,0,109.8,13.49,5.15,35.5
"2009-04-13 00:03:00",795216,15.45,66.95,4.599,0.56,10.3,101.9926,4.384,5.669,87.2,0,109.8,13.49,5.15,28.9
"2009-04-13 00:03:30",795217,14.98,71.56,5.273,0.717,9.97,101.9932,4.386,5.663,87.1,0,109.8,13.49,5.15,33.6
"2009-04-13 00:04:00",795218,14.49,68.65,4.411,0.746,10.22,101.9932,4.386,5.658,87.1,0,109.8,13.49,5.15,30.7
"2009-04-13 00:04:30",795219,15.34,66.49,4.353,0.666,10.1,101.9949,4.39,5.643,87.1,0,109.8,13.49,5.16,28.5
"2009-04-13 00:05:00",795220,14.52,68.07,4.562,0.765,10.21,101.9985,4.399,5.659,87.1,0,109.8,13.48,5.17,30.1
"2009-04-13 00:05:30",795221,15.2,69,5.419,0.758,10.15,102.0002,4.404,5.657,87.1,0,109.8,13.48,5.17,31.0
"2009-04-13 00:06:00",795222,14.35,72.54,4.415,0.752,10.29,102.0014,4.407,5.66,87.2,0,109.8,13.48,5.17,34.5
"2009-04-13 00:06:30",795223,14.89,68.75,4.293,0.883,10.25,101.9994,4.402,5.689,87.3,0,109.8,13.48,5.17,30.8
"2009-04-13 00:07:00",795224,15.34,67.75,5.09,0.649,10.12,101.9977,4.397,5.677,87.3,0,109.8,13.48,5.16,29.8
"2009-04-13 00:07:30",795225,15.7,66.25,4.492,0.912,10.43,101.9968,4.395,5.679,87.3,0,109.8,13.48,5.16,28.2
"2009-04-13 00:08:00",795226,14.81,65.32,6.184,0.959,10.47,101.9968,4.395,5.667,87.2,0,109.8,13.47,5.16,27.3
"2009-04-13 00:08:30",795227,14.89,65.67,4.172,0.723,10.27,101.9991,4.401,5.651,87.1,0,109.8,13.48,5.17,27.7
"2009-04-13 00:09:00",795228,15.16,64.85,4.593,0.8,10.24,102.0002,4.404,5.663,87.1,0,109.8,13.47,5.17,26.8
"2009-04-13 00:09:30",795229,15.02,63.37,4.55,0.783,10.44,102.0005,4.404,5.653,87.1,0,109.8,13.48,5.17,25.4
"2009-04-13 00:10:00",795230,15.18,62.3,4.73,0.884,10.37,102.0008,4.405,5.66,87,0,109.8,13.48,5.17,24.3
"2009-04-13 00:10:30",795231,14.19,62.26,5.035,0.917,10.36,102.0005,4.404,5.649,87,0,109.8,13.48,5.17,24.3
"2009-04-13 00:11:00",795232,15.84,62.38,4.709,1.11,10.42,102.0008,4.405,5.663,87,0,109.8,13.48,5.17,24.4
"2009-04-13 00:11:30",795233,14.71,63.72,5.037,0.92,10.23,102.0011,4.406,5.658,87,0,109.8,13.48,5.17,25.7
"2009-04-13 00:12:00",795234,14.15,60.53,5.816,0.73,10.39,102.0008,4.405,5.669,87.3,0,109.8,13.49,5.17,22.5
"2009-04-13 00:12:30",795235,15.5,61.08,5.22,0.979,10.46,101.9974,4.397,5.661,87.4,0,109.8,13.49,5.16,23.1
"2009-04-13 00:13:00",795236,14.25,66.26,6.372,1.037,10.37,101.9932,4.386,5.662,87.5,0,109.8,13.49,5.15,28.3
"2009-04-13 00:13:30",795237,13.26,66.12,6.027,0.748,10.19,101.9929,4.385,5.66,87.6,0,109.8,13.49,5.15,28.1
"2009-04-13 00:14:00",795238,13.47,69.56,4.795,1.082,10.26,101.9926,4.384,5.653,87.7,0,109.8,13.49,5.15,31.6
"2009-04-13 00:14:30",795239,14.13,62.59,5.358,0.66,9.98,101.9883,4.373,5.644,87.9,0,109.8,13.49,5.14,24.6
"2009-04-13 00:15:00",795240,14.08,65.07,6.986,0.919,10.06,101.9765,4.343,5.648,88,0,109.8,13.49,5.11,27.1
"2009-04-13 00:15:30",795241,12.94,61.11,4.039,0.706,9.94,101.9708,4.329,5.635,88.1,0,109.8,13.49,5.10,23.1
"2009-04-13 00:16:00",795242,14.09,63.67,4.46,1.267,10.06,101.959,4.298,5.629,88.2,0,109.8,13.49,5.07,25.7
"2009-04-13 00:16:30",795243,14.84,62.69,4.085,0.459,10.22,101.9541,4.286,5.611,88.2,0,109.8,13.49,5.05,24.7
"2009-04-13 00:17:00",795244,14.87,63.95,4.56,0.985,10.27,101.9428,4.257,5.6,88.1,0,109.8,13.49,5.02,26.0
"2009-04-13 00:17:30",795245,14.81,57.25,4.574,1.043,10.18,101.9392,4.248,5.558,88.1,0,109.8,13.49,5.01,19.2
"2009-04-13 00:18:00",795246,13.98,58.92,4.677,0.772,10.31,101.929,4.222,5.543,88.1,0,109.8,13.49,4.99,20.9
"2009-04-13 00:18:30",795247,14.57,61.87,4.393,0.802,10.24,101.925,4.212,5.525,88.1,0,109.8,13.49,4.98,23.9
"2009-04-13 00:19:00",795248,14.18,59.03,4.364,0.643,10.15,101.925,4.212,5.536,88.1,0,109.8,13.49,4.98,21.0
"2009-04-13 00:19:30",795249,14.35,62.32,4.223,0.732,10.17,101.9231,4.207,5.505,88.1,0,109.8,13.49,4.97,24.3
"2009-04-13 00:20:00",795250,13.94,65.78,3.789,0.687,10.24,101.9185,4.195,5.494,88.2,0,109.8,13.49,4.96,27.8
"2009-04-13 00:20:30",795251,13.95,66.32,3.899,0.629,9.97,101.9151,4.187,5.488,88.2,0,109.8,13.49,4.95,28.3
"2009-04-13 00:21:00",795252,13.67,65.66,4.122,0.558,9.84,101.9086,4.17,5.466,88.3,0,109.8,13.49,4.94,27.7
"2009-04-13 00:21:30",795253,13.61,66.76,5.392,0.71,9.83,101.9086,4.17,5.457,88.4,0,109.8,13.48,4.94,28.8
"2009-04-13 00:22:00",795254,14.2,64.03,4.472,0.674,10.12,101.9078,4.168,5.455,88.6,0,109.8,13.48,4.93,26.0
"2009-04-13 00:22:30",795255,14.29,64.55,4.313,0.553,10.05,101.9021,4.153,5.451,88.6,0,109.8,13.48,4.92,26.6
"2009-04-13 00:23:00",795256,14.27,67.22,4.718,0.684,9.94,101.9016,4.152,5.466,88.6,0,109.8,13.48,4.92,29.2
"2009-04-13 00:23:30",795257,13.97,67.04,3.927,0.641,9.92,101.9013,4.151,5.439,88.6,0,109.8,13.48,4.92,29.0
"2009-04-13 00:24:00",795258,14.29,67.94,4.663,0.695,10.06,101.9013,4.151,5.437,88.7,0,109.8,13.48,4.92,29.9
"2009-04-13 00:24:30",795259,14.55,68.09,4.827,0.885,9.96,101.901,4.15,5.446,88.8,0,109.8,13.48,4.92,30.1
"2009-04-13 00:25:00",795260,15.04,63.98,4.722,0.736,10.05,101.9002,4.148,5.451,88.7,0,109.8,13.48,4.91,26.0
"2009-04-13 00:25:30",795261,14.96,63.47,3.868,0.7,10.04,101.9021,4.153,5.421,88.6,0,109.8,13.48,4.92,25.5
"2009-04-13 00:26:00",795262,14.71,62.68,5.292,0.671,10.26,101.9064,4.164,5.426,88.5,0,109.8,13.48,4.93,24.7
"2009-04-13 00:26:30",795263,15.66,62.7,4.066,0.857,10.27,101.9078,4.168,5.417,88.5,0,109.8,13.48,4.93,24.7
"2009-04-13 00:27:00",795264,15.55,64.44,5.255,0.745,10.37,101.9083,4.169,5.435,88.4,0,109.8,13.48,4.94,26.4
"2009-04-13 00:27:30",795265,16.33,62.13,3.445,0.787,10.29,101.9149,4.186,5.417,88.2,0,109.8,13.48,4.95,24.1
"2009-04-13 00:28:00",795266,15.91,63.88,3.68,0.725,10.35,101.9242,4.21,5.407,88.1,0,109.8,13.49,4.98,25.9
"2009-04-13 00:28:30",795267,16.64,62.6,3.535,0.818,10.44,101.925,4.212,5.439,88.1,0,109.7,13.49,4.98,24.6
"2009-04-13 00:29:00",795268,16.65,64.6,4.322,0.809,10.46,101.927,4.217,5.439,87.9,0,109.8,13.49,4.98,26.6
"2009-04-13 00:29:30",795269,17.01,64.99,4.214,0.643,10.46,101.9344,4.236,5.432,87.7,0,109.8,13.49,5.00,27.0
"2009-04-13 00:30:00",795270,16.6,65.06,4.893,0.476,10.74,101.9375,4.244,5.435,87.6,0,109.8,13.49,5.01,27.1
"2009-04-13 00:30:30",795271,16.93,65.25,3.844,0.7,10.7,101.9443,4.261,5.459,87.5,0,109.7,13.49,5.03,27.2
"2009-04-13 00:31:00",795272,16.4,65.46,4.7,0.676,10.71,101.9505,4.277,5.497,87.3,0,109.8,13.49,5.04,27.5
"2009-04-13 00:31:30",795273,16.31,66.96,4.508,0.759,10.74,101.959,4.298,5.482,87.3,0,109.8,13.49,5.07,29.0
"2009-04-13 00:32:00",795274,15.63,69.28,3.933,0.657,10.4,101.959,4.298,5.495,87.3,0,109.8,13.49,5.07,31.3
"2009-04-13 00:32:30",795275,15.63,71.73,4.094,0.524,10.34,101.959,4.298,5.525,87.4,0,109.8,13.49,5.07,33.7
"2009-04-13 00:33:00",795276,15.52,76.07,4.581,0.654,10.24,101.9592,4.299,5.54,87.6,0,109.8,13.49,5.07,38.1
"2009-04-13 00:33:30",795277,15.49,77.87,3.866,0.603,10.13,101.959,4.298,5.528,87.7,0,109.8,13.49,5.07,39.9
"2009-04-13 00:34:00",795278,15.57,78.93,4.258,0.594,10.12,101.959,4.298,5.518,87.9,0,109.8,13.49,5.07,40.9
"2009-04-13 00:34:30",795279,15.2,79.54,3.89,0.544,9.86,101.9573,4.294,5.556,88,0,109.8,13.49,5.06,41.5
"2009-04-13 00:35:00",795280,14.87,77.38,5.111,0.586,9.9,101.9513,4.279,5.549,88.1,0,109.8,13.49,5.05,39.4
"2009-04-13 00:35:30",795281,14.52,77.41,4.621,0.621,9.82,101.9406,4.251,5.548,88.2,0,109.8,13.49,5.02,39.4
"2009-04-13 00:36:00",795282,15.04,74.28,4.392,0.567,9.96,101.9361,4.24,5.54,88.3,0,109.8,13.49,5.01,36.3
"2009-04-13 00:36:30",795283,15.35,73.94,4.249,0.462,10.01,101.9262,4.215,5.53,88.3,0,109.7,13.49,4.98,35.9
"2009-04-13 00:37:00",795284,13.94,77.23,4.72,0.692,9.57,101.9233,4.207,5.541,88.5,0,109.8,13.49,4.97,39.2
"2009-04-13 00:37:30",795285,14.54,75.26,4.087,0.932,9.81,101.916,4.189,5.513,88.6,0,109.8,13.49,4.96,37.3
"2009-04-13 00:38:00",795286,14.29,75.34,4.705,0.493,9.92,101.9083,4.169,5.506,88.7,0,109.8,13.49,4.94,37.3
"2009-04-13 00:38:30",795287,14.56,72.17,3.814,0.593,9.69,101.8985,4.144,5.498,88.8,0,109.7,13.48,4.91,34.2
"2009-04-13 00:39:00",795288,14.08,74.89,5.144,0.745,9.48,101.8911,4.125,5.491,88.9,0,109.8,13.48,4.89,36.9
"2009-04-13 00:39:30",795289,14.09,73.09,4.909,0.639,9.66,101.8905,4.124,5.469,89,0,109.8,13.48,4.89,35.1
"2009-04-13 00:40:00",795290,14.1,71.1,5.717,0.708,9.93,101.8798,4.096,5.457,89.1,0,109.8,13.48,4.86,33.1
"2009-04-13 00:40:30",795291,14.98,66.02,5.098,1.037,10.05,101.8716,4.075,5.443,89.2,0,109.7,13.48,4.84,28.0
"2009-04-13 00:41:00",795292,13.94,75.51,5.194,0.743,9.61,101.8603,4.046,5.421,89.2,0,109.8,13.48,4.81,37.5
"2009-04-13 00:41:30",795293,13.3,73.31,5.96,0.782,9.58,101.8572,4.039,5.38,89.3,0,109.8,13.48,4.80,35.3
"2009-04-13 00:42:00",795294,15.5,63.21,4.934,0.86,10.61,101.8546,4.032,5.383,89.3,0,109.8,13.48,4.80,25.2
"2009-04-13 00:42:30",795295,14.4,70.55,4.189,0.726,10.14,101.8482,4.015,5.374,89,0,109.7,13.49,4.78,32.6
"2009-04-13 00:43:00",795296,14.31,68.41,4.817,0.726,10.02,101.851,4.023,5.359,88.9,0,109.8,13.49,4.79,30.4
"2009-04-13 00:43:30",795297,14.76,69.31,4.434,0.749,10.07,101.8583,4.041,5.343,88.9,0,109.8,13.49,4.81,31.3
"2009-04-13 00:44:00",795298,15.18,68.45,4.85,0.508,10.25,101.8581,4.041,5.343,88.9,0,109.8,13.49,4.81,30.4
"2009-04-13 00:44:30",795299,15.26,69.05,4.237,0.858,9.95,101.8583,4.041,5.339,88.9,0,109.7,13.49,4.81,31.1
"2009-04-13 00:45:00",795300,15.19,69.42,4.351,0.501,9.92,101.8668,4.063,5.33,89,0,109.8,13.49,4.83,31.4
"2009-04-13 00:45:30",795301,14.93,70.74,4.401,0.542,10.02,101.8742,4.082,5.352,89,0,109.8,13.49,4.85,32.7
"2009-04-13 00:46:00",795302,15.37,67.64,4.571,0.607,10.39,101.8727,4.078,5.354,89.1,0,109.8,13.49,4.84,29.6
"2009-04-13 00:46:30",795303,15.5,68.47,3.863,0.575,10.22,101.8747,4.083,5.341,89.1,0,109.7,13.49,4.85,30.5
"2009-04-13 00:47:00",795304,15.69,66.9,4.382,0.543,10.35,101.8787,4.093,5.364,89,0,109.8,13.49,4.86,28.9
"2009-04-13 00:47:30",795305,15.88,65.68,4.081,0.589,10.51,101.8866,4.114,5.349,88.7,0,109.8,13.49,4.88,27.7
"2009-04-13 00:48:00",795306,16.06,64.9,4.305,0.593,10.56,101.8903,4.123,5.347,88.3,0,109.8,13.49,4.89,26.9
"2009-04-13 00:48:30",795307,16.02,64.77,3.767,0.533,10.56,101.8937,4.132,5.355,87.8,0,109.7,13.49,4.90,26.8
"2009-04-13 00:49:00",795308,15.65,65.88,4.306,0.566,10.53,101.9002,4.148,5.363,87.3,0,109.8,13.49,4.91,27.9
"2009-04-13 00:49:30",795309,15.97,64.02,4.399,0.568,10.67,101.9095,4.172,5.369,86.9,0,109.8,13.49,4.94,26.0
"2009-04-13 00:50:00",795310,15.94,65.74,4.3,0.543,10.65,101.925,4.212,5.379,86.2,0,109.8,13.49,4.98,27.7
"2009-04-13 00:50:30",795311,16.08,66.55,3.285,0.572,10.34,101.9327,4.231,5.378,85.8,0,109.7,13.49,5.00,28.6
"2009-04-13 00:51:00",795312,16,67.34,4.321,0.554,10.35,101.9344,4.236,5.394,85.5,0,109.8,13.49,5.00,29.3
"2009-04-13 00:51:30",795313,15.9,67.32,4.152,0.44,10.47,101.938,4.245,5.432,85.5,0,109.8,13.49,5.01,29.3
"2009-04-13 00:52:00",795314,15.79,66.58,3.813,0.678,10.41,101.9403,4.251,5.45,85.5,0,109.8,13.49,5.02,28.6
"2009-04-13 00:52:30",795315,16.09,68.2,3.341,0.612,10.24,101.9417,4.254,5.473,85.5,0,109.7,13.49,5.02,30.2
"2009-04-13 00:53:00",795316,16.41,67.63,3.738,0.57,10.28,101.9406,4.251,5.465,85.5,0,109.8,13.49,5.02,29.6
"2009-04-13 00:53:30",795317,16.46,67.01,3.822,0.615,10.33,101.9395,4.249,5.479,85.3,0,109.8,13.49,5.02,29.0
"2009-04-13 00:54:00",795318,16.35,67.08,4.115,0.535,10.57,101.938,4.245,5.473,85.2,0,109.8,13.49,5.01,29.1
"2009-04-13 00:54:30",795319,16.66,67.12,3.838,0.529,10.43,101.9338,4.234,5.484,85.1,0,109.7,13.49,5.00,29.1
"2009-04-13 00:55:00",795320,16.5,67.93,4.607,0.599,10.39,101.9338,4.234,5.477,84.9,0,109.8,13.48,5.00,29.9
"2009-04-13 00:55:30",795321,16.33,68.74,4.539,0.62,10.36,101.9338,4.234,5.46,84.8,0,109.8,13.48,5.00,30.7
"2009-04-13 00:56:00",795322,16.72,68.15,4.447,0.54,10.44,101.929,4.222,5.477,84.7,0,109.8,13.48,4.99,30.2
"2009-04-13 00:56:30",795323,16.55,67.14,4.009,0.604,10.48,101.9253,4.213,5.48,84.6,0,109.8,13.48,4.98,29.1
"2009-04-13 00:57:00",795324,16.23,66.76,4.85,0.612,10.4,101.9233,4.207,5.47,84.5,0,109.8,13.48,4.97,28.8
"2009-04-13 00:57:30",795325,16.8,67.15,4.455,0.666,10.45,101.9149,4.186,5.461,84.6,0,109.8,13.48,4.95,29.2
"2009-04-13 00:58:00",795326,16.85,65.1,4.366,0.694,10.57,101.905,4.161,5.451,84.4,0,109.8,13.48,4.93,27.1
"2009-04-13 00:58:30",795327,16.27,65.55,4.021,0.589,10.53,101.9016,4.152,5.432,84.3,0,109.7,13.49,4.92,27.6
"2009-04-13 00:59:00",795328,15.96,66.29,4.124,0.754,10.46,101.9002,4.148,5.46,84.5,0,109.8,13.49,4.91,28.3
"2009-04-13 00:59:30",795329,16.15,66.37,3.625,0.712,10.39,101.8999,4.148,5.426,84.6,0,109.8,13.49,4.91,28.4
"2009-04-13 01:00:00",795330,16.02,67.45,3.944,0.759,10.44,101.8996,4.147,5.424,84.7,0,109.8,13.49,4.91,29.4
"2009-04-13 01:00:30",795331,15.94,68.15,4.176,0.515,10.3,101.8999,4.148,5.429,84.8,0,109.8,13.49,4.91,30.2
"2009-04-13 01:01:00",795332,16.06,67.15,4.066,0.846,10.28,101.8996,4.147,5.428,85,0,109.8,13.49,4.91,29.2
"2009-04-13 01:01:30",795333,16.07,66.56,4.742,0.692,10.31,101.899,4.145,5.419,85.3,0,109.8,13.49,4.91,28.6
"2009-04-13 01:02:00",795334,15.86,66.56,4.851,0.776,10.48,101.8939,4.132,5.413,85.4,0,109.8,13.49,4.90,28.6
"2009-04-13 01:02:30",795335,16.05,68.11,4.372,0.801,10.38,101.8923,4.128,5.433,85.5,0,109.7,13.49,4.89,30.1
"2009-04-13 01:03:00",795336,16.09,67.95,3.361,0.817,10.21,101.8911,4.125,5.424,85.6,0,109.8,13.49,4.89,29.9
"2009-04-13 01:03:30",795337,16.04,68.75,4.001,0.824,10.28,101.8883,4.118,5.393,85.6,0,109.8,13.49,4.88,30.8
"2009-04-13 01:04:00",795338,16.24,68.7,4.404,0.789,10.27,101.8849,4.109,5.406,85.6,0,109.8,13.49,4.88,30.7
"2009-04-13 01:04:30",795339,15.9,67.95,3.81,0.609,10.43,101.8838,4.106,5.383,85.6,0,109.7,13.49,4.87,29.9
"2009-04-13 01:05:00",795340,16.37,67.36,4.24,0.731,10.32,101.8812,4.1,5.379,85.6,0,109.8,13.49,4.87,29.4
"2009-04-13 01:05:30",795341,16.59,67.47,4.267,0.761,10.38,101.8815,4.101,5.383,85.5,0,109.8,13.49,4.87,29.5
"2009-04-13 01:06:00",795342,16.84,66.52,4.231,0.828,10.6,101.8815,4.101,5.375,85.5,0,109.8,13.49,4.87,28.5
"2009-04-13 01:06:30",795343,16.02,68.38,4.034,0.522,10.36,101.8858,4.112,5.381,85.5,0,109.8,13.49,4.88,30.4
"2009-04-13 01:07:00",795344,16.01,67.85,4.539,0.589,10.49,101.8872,4.115,5.379,85.6,0,109.8,13.49,4.88,29.8
"2009-04-13 01:07:30",795345,16.03,67.53,4.411,0.623,10.44,101.8917,4.127,5.369,85.6,0,109.8,13.49,4.89,29.5
"2009-04-13 01:08:00",795346,16.04,67.48,3.91,0.531,10.49,101.8928,4.13,5.39,85.6,0,109.8,13.49,4.90,29.5
"2009-04-13 01:08:30",795347,16.29,67.68,3.198,0.515,10.4,101.8917,4.127,5.377,85.6,0,109.7,13.49,4.89,29.7
"2009-04-13 01:09:00",795348,16.04,68.12,3.964,0.702,10.3,101.8923,4.128,5.405,85.6,0,109.8,13.49,4.89,30.1
"2009-04-13 01:09:30",795349,16.26,67.45,4.096,0.599,10.42,101.8937,4.132,5.391,85.4,0,109.8,13.49,4.90,29.4
"2009-04-13 01:10:00",795350,16.19,67.62,3.533,0.634,10.55,101.8962,4.138,5.368,85.2,0,109.8,13.49,4.90,29.6
"2009-04-13 01:10:30",795351,16.07,69.66,4.751,0.619,10.46,101.901,4.15,5.401,85.1,0,109.7,13.49,4.92,31.7
"2009-04-13 01:11:00",795352,15.87,68.7,4.481,0.605,10.52,101.9013,4.151,5.409,85,0,109.8,13.49,4.92,30.7
"2009-04-13 01:11:30",795353,16.37,69.39,3.695,0.707,10.29,101.9025,4.154,5.395,85,0,109.8,13.49,4.92,31.4
"2009-04-13 01:12:00",795354,15.93,70.67,3.829,0.786,10.27,101.9013,4.151,5.4,84.9,0,109.8,13.49,4.92,32.7
"2009-04-13 01:12:30",795355,15.59,70.04,4.191,0.446,10.41,101.9033,4.156,5.414,85,0,109.8,13.49,4.92,32.0
"2009-04-13 01:13:00",795356,15.65,69.03,3.988,0.657,10.25,101.9076,4.167,5.423,85.1,0,109.8,13.49,4.93,31.0
"2009-04-13 01:13:30",795357,15.85,68.71,4.154,0.612,10.38,101.9062,4.164,5.408,85.2,0,109.8,13.49,4.93,30.7
"2009-04-13 01:14:00",795358,15.8,69.38,3.952,0.67,10.44,101.9039,4.158,5.424,85.1,0,109.8,13.49,4.92,31.4
"2009-04-13 01:14:30",795359,15.44,71.71,3.821,0.603,10.21,101.9059,4.163,5.429,85,0,109.8,13.49,4.93,33.7
"2009-04-13 01:15:00",795360,15.77,70.75,4.123,0.625,10.16,101.9081,4.169,5.433,85.1,0,109.8,13.49,4.94,32.8
"2009-04-13 01:15:30",795361,15.29,71.37,3.788,0.757,10.18,101.9084,4.169,5.441,85.2,0,109.8,13.49,4.94,33.4
"2009-04-13 01:16:00",795362,15.85,70.39,3.775,0.681,10.17,101.9062,4.164,5.444,85.3,0,109.8,13.49,4.93,32.4
"2009-04-13 01:16:30",795363,15.66,70.79,3.981,0.496,10.16,101.9062,4.164,5.428,85.3,0,109.7,13.49,4.93,32.8
"2009-04-13 01:17:00",795364,15.3,71.81,3.894,0.952,10.17,101.9051,4.161,5.448,85.4,0,109.8,13.49,4.93,33.8
"2009-04-13 01:17:30",795365,15,72.85,4.373,0.947,9.99,101.9039,4.158,5.442,85.5,0,109.8,13.49,4.92,34.8
"2009-04-13 01:18:00",795366,15.1,71.67,3.769,0.657,10.15,101.9011,4.151,5.418,85.7,0,109.8,13.49,4.92,33.7
"2009-04-13 01:18:30",795367,15.45,72.25,4.11,0.596,10,101.8966,4.139,5.414,85.7,0,109.7,13.49,4.91,34.2
"2009-04-13 01:19:00",795368,15.56,71.48,4.349,0.928,10.11,101.8969,4.14,5.429,85.8,0,109.8,13.49,4.91,33.5
"2009-04-13 01:19:30",795369,15.8,70.71,4.062,0.733,9.93,101.8912,4.125,5.432,85.8,0,109.8,13.49,4.89,32.7
"2009-04-13 01:20:00",795370,15.86,71.6,4.054,0.816,9.92,101.883,4.105,5.406,85.8,0,109.8,13.49,4.87,33.6
"2009-04-13 01:20:30",795371,15.8,73.3,3.645,0.761,10.19,101.8822,4.102,5.409,85.9,0,109.7,13.49,4.87,35.3
"2009-04-13 01:21:00",795372,15.29,73.22,5.129,0.839,10.16,101.8746,4.083,5.39,85.9,0,109.7,13.49,4.85,35.2
"2009-04-13 01:21:30",795373,15.14,73.08,5.159,0.773,10.08,101.8726,4.078,5.379,86.1,0,109.8,13.49,4.84,35.1
"2009-04-13 01:22:00",795374,14.21,73.27,5.223,0.671,9.92,101.8664,4.062,5.365,86.2,0,109.8,13.49,4.83,35.3
"2009-04-13 01:22:30",795375,14.77,73.19,4.865,0.52,10.09,101.8664,4.062,5.365,86.4,0,109.7,13.49,4.83,35.2
"2009-04-13 01:23:00",795376,14.92,69.14,4.613,0.931,9.96,101.8568,4.038,5.382,86.6,0,109.8,13.49,4.80,31.1
"2009-04-13 01:23:30",795377,15.39,69.53,4.596,0.886,9.85,101.8466,4.012,5.335,86.6,0,109.8,13.49,4.78,31.5
"2009-04-13 01:24:00",795378,15.17,71.33,5.207,0.681,10.04,101.8435,4.004,5.324,86.8,0,109.7,13.49,4.77,33.3
"2009-04-13 01:24:30",795379,14.91,72.18,4.513,0.797,9.99,101.8447,4.007,5.313,86.8,0,109.7,13.49,4.77,34.2
"2009-04-13 01:25:00",795380,13.62,70.5,5.581,0.723,9.8,101.8393,3.993,5.319,87,0,109.7,13.49,4.76,32.5
"2009-04-13 01:25:30",795381,14.85,72.49,5.198,1.015,9.92,101.8365,3.986,5.308,87.2,0,109.7,13.49,4.75,34.5
"2009-04-13 01:26:00",795382,15.06,75.82,4.622,1.051,10.18,101.8332,3.977,5.293,87.3,0,109.7,13.5,4.74,37.8
"2009-04-13 01:26:30",795383,16.16,74.13,4.031,0.663,9.99,101.8244,3.955,5.281,87.4,0,109.7,13.49,4.72,36.1
"2009-04-13 01:27:00",795384,15.2,71.76,4.401,0.926,9.89,101.8219,3.948,5.262,87.5,0,109.7,13.49,4.71,33.8
"2009-04-13 01:27:30",795385,15.06,72.79,3.71,0.817,9.91,101.8202,3.944,5.257,87.7,0,109.7,13.49,4.71,34.8
"2009-04-13 01:28:00",795386,16.22,72.56,4.269,0.654,10.2,101.8139,3.928,5.265,87.7,0,109.7,13.49,4.69,34.6
"2009-04-13 01:28:30",795387,15.42,73.76,3.137,0.795,9.99,101.8077,3.912,5.231,87.7,0,109.7,13.49,4.68,35.8
"2009-04-13 01:29:00",795388,15.44,74.31,4.177,0.729,10.04,101.8063,3.909,5.215,87.7,0,109.7,13.49,4.67,36.3
"2009-04-13 01:29:30",795389,13.99,74.76,5.198,0.887,9.75,101.8066,3.909,5.21,87.7,0,109.7,13.49,4.68,36.8
"2009-04-13 01:30:00",795390,13.74,73.86,4.43,0.694,9.77,101.8083,3.914,5.199,87.8,0,109.7,13.49,4.68,35.9
"2009-04-13 01:30:30",795391,14.57,77.83,5.163,0.903,9.8,101.8081,3.913,5.182,87.9,0,109.7,13.49,4.68,39.8
"2009-04-13 01:31:00",795392,15.68,76.62,3.995,0.641,9.8,101.8084,3.914,5.205,88,0,109.7,13.49,4.68,38.6
"2009-04-13 01:31:30",795393,15.12,75.64,4.125,0.681,9.81,101.8029,3.9,5.193,88,0,109.7,13.49,4.67,37.6
"2009-04-13 01:32:00",795394,15.57,75.74,4,0.605,9.85,101.803,3.9,5.181,88,0,109.7,13.49,4.67,37.7
"2009-04-13 01:32:30",795395,14.65,76.54,3.696,0.707,9.75,101.8035,3.902,5.163,88,0,109.7,13.49,4.67,38.5
"2009-04-13 01:33:00",795396,13.49,76.72,5.139,0.589,9.83,101.8047,3.904,5.194,88.1,0,109.7,13.5,4.67,38.7
"2009-04-13 01:33:30",795397,13.53,76.22,4.341,0.656,9.56,101.8058,3.907,5.184,88.2,0,109.7,13.5,4.67,38.2
"2009-04-13 01:34:00",795398,14.88,78.22,4.753,0.743,9.82,101.8047,3.904,5.165,88.3,0,109.7,13.5,4.67,40.2
"2009-04-13 01:34:30",795399,15.01,75.5,4.456,0.539,9.65,101.8013,3.896,5.179,88.3,0,109.7,13.5,4.66,37.5
"2009-04-13 01:35:00",795400,15.59,76.29,3.919,0.713,9.83,101.8001,3.893,5.197,88.4,0,109.7,13.5,4.66,38.3
"2009-04-13 01:35:30",795401,15.61,74.93,4.383,0.708,9.9,101.8004,3.894,5.177,88.4,0,109.7,13.5,4.66,36.9
"2009-04-13 01:36:00",795402,15.41,76.65,3.779,0.534,9.78,101.7999,3.892,5.159,88.4,0,109.7,13.5,4.66,38.7
"2009-04-13 01:36:30",795403,15.52,78.26,3.913,0.39,9.94,101.7993,3.891,5.17,88.4,0,109.7,13.5,4.66,40.3
"2009-04-13 01:37:00",795404,15.57,75.94,4.166,0.636,9.98,101.8024,3.899,5.173,88.4,0,109.7,13.5,4.66,37.9
"2009-04-13 01:37:30",795405,15.3,77.6,3.684,0.638,9.76,101.8035,3.902,5.149,88.4,0,109.7,13.5,4.67,39.6
"2009-04-13 01:38:00",795406,15.13,76.61,4.367,0.598,10.03,101.8044,3.904,5.178,88.5,0,109.7,13.5,4.67,38.6
"2009-04-13 01:38:30",795407,15.16,78.71,3.437,0.783,9.72,101.8055,3.907,5.169,88.5,0,109.7,13.5,4.67,40.7
"2009-04-13 01:39:00",795408,15.5,76.69,4.26,0.556,9.87,101.8052,3.906,5.186,88.5,0,109.7,13.5,4.67,38.7
"2009-04-13 01:39:30",795409,15.73,75.22,4.337,0.623,10.06,101.8069,3.91,5.175,88.5,0,109.7,13.5,4.68,37.2
"2009-04-13 01:40:00",795410,15.88,74.72,4.261,0.469,10.19,101.8061,3.908,5.174,88.4,0,109.7,13.5,4.67,36.7
"2009-04-13 01:40:30",795411,15.73,75.58,3.477,0.662,9.89,101.8078,3.912,5.182,88.3,0,109.7,13.5,4.68,37.6
"2009-04-13 01:41:00",795412,15.71,75.49,3.512,0.649,9.87,101.8081,3.913,5.182,88.2,0,109.7,13.5,4.68,37.5
"2009-04-13 01:41:30",795413,15.63,75.52,4.561,0.602,9.99,101.8078,3.912,5.158,88.1,0,109.7,13.5,4.68,37.5
"2009-04-13 01:42:00",795414,15.48,73.81,4.208,0.595,10.17,101.8086,3.915,5.151,88,0,109.7,13.5,4.68,35.8
"2009-04-13 01:42:30",795415,15.52,74.85,3.853,0.582,10.01,101.8097,3.917,5.153,87.9,0,109.7,13.49,4.68,36.8
"2009-04-13 01:43:00",795416,15.28,75.61,4.523,0.606,10,101.8128,3.925,5.186,87.8,0,109.7,13.49,4.69,37.6
"2009-04-13 01:43:30",795417,15.27,74.55,4.319,0.587,10.08,101.8154,3.932,5.161,87.8,0,109.8,13.49,4.70,36.6
"2009-04-13 01:44:00",795418,15.23,74.86,4.803,0.611,10.14,101.8159,3.933,5.169,87.7,0,109.7,13.49,4.70,36.9
"2009-04-13 01:44:30",795419,15.49,74.19,3.52,0.674,10.02,101.8159,3.933,5.205,87.6,0,109.8,13.49,4.70,36.2
"2009-04-13 01:45:00",795420,15.45,73.84,4.593,0.492,10.1,101.8191,3.941,5.174,87.5,0,109.7,13.49,4.71,35.8
"2009-04-13 01:45:30",795421,15.12,73.27,4.065,0.747,10.06,101.8225,3.95,5.194,87.3,0,109.7,13.49,4.72,35.3
"2009-04-13 01:46:00",795422,14.98,73.87,3.726,0.612,10.06,101.8247,3.956,5.186,87.2,0,109.7,13.49,4.72,35.9
"2009-04-13 01:46:30",795423,15,75.46,3.444,0.602,9.92,101.8335,3.978,5.186,87,0,109.7,13.49,4.74,37.5
"2009-04-13 01:47:00",795424,14.7,75.23,4.281,0.615,9.8,101.8426,4.001,5.191,87,0,109.7,13.49,4.77,37.2
"2009-04-13 01:47:30",795425,14.69,74.14,4.196,0.599,9.89,101.842,4,5.203,87,0,109.7,13.49,4.77,36.1
"2009-04-13 01:48:00",795426,14.81,72.85,4.744,0.575,10,101.8428,4.002,5.2,87,0,109.7,13.49,4.77,34.8
"2009-04-13 01:48:30",795427,14.84,72.45,3.842,0.477,10.07,101.8474,4.013,5.234,86.9,0,109.7,13.5,4.78,34.4
"2009-04-13 01:49:00",795428,14.93,70.84,4.066,0.635,10.13,101.8502,4.021,5.232,86.8,0,109.7,13.5,4.79,32.8
"2009-04-13 01:49:30",795429,14.68,70.38,4.332,0.719,10.04,101.8513,4.024,5.236,86.6,0,109.7,13.5,4.79,32.4
"2009-04-13 01:50:00",795430,14.83,69.98,5.128,0.62,10.25,101.8553,4.034,5.272,86.5,0,109.7,13.5,4.80,32.0
"2009-04-13 01:50:30",795431,14.91,70.45,3.88,0.561,9.93,101.8618,4.05,5.264,86.4,0,109.7,13.5,4.82,32.4
"2009-04-13 01:51:00",795432,14.77,69.51,3.852,0.763,10.09,101.8722,4.077,5.276,86.3,0,109.7,13.5,4.84,31.5
"2009-04-13 01:51:30",795433,14.6,69.34,3.797,0.65,10.05,101.8759,4.086,5.288,86.2,0,109.7,13.5,4.85,31.3